Location: Newark
(45.0833°N, 9.3000°E)
Time: 07:23:25
(UTC+00:00)

ISS - Visible Passes

Search period start: 18 November 2019 00:00
Search period end: 28 November 2019 00:00
Orbit: 412 x 421 km, 51.6° (Epoch: 18 November)

Date Brightness Start Highest point End Pass type
(mag) Time Alt. Az. Time Alt. Az. Time Alt. Az.
20 Nov -1.2 17:28:52 10° SSE 17:29:10 11° SSE 17:29:10 11° SSE visible
21 Nov -1.3 18:15:01 10° SW 18:16:02 18° SW 18:16:02 18° SW visible
22 Nov -2.7 17:26:57 10° SSW 17:29:52 31° SE 17:29:52 31° SE visible
23 Nov -2.0 16:39:12 10° S 16:41:40 19° SE 16:43:36 13° E visible
23 Nov -1.7 18:14:45 10° WSW 18:16:31 28° WSW 18:16:31 28° WSW visible
24 Nov -3.9 17:26:18 10° SW 17:29:39 77° SSE 17:30:10 59° E visible
25 Nov -3.3 16:38:01 10° SW 16:41:15 47° SE 16:43:46 15° ENE visible
25 Nov -1.6 18:14:53 10° W 18:16:40 25° WNW 18:16:40 25° WNW visible
26 Nov -3.2 17:26:14 10° W 17:29:30 51° NNW 17:30:11 42° NNE visible
27 Nov -3.7 16:37:38 10° WSW 16:40:58 74° NNW 16:43:40 15° ENE visible
27 Nov -1.3 18:15:08 10° WNW 18:16:34 19° NW 18:16:34 19° NW visible
